Content
SEND FEEDBACK

Daily
Averages
Monthly
Summary
Grenada

SAINT GEORGE'S, GRENADA


Home > Caribbean > Grenada
Elevation: 23 feet     Latitude: 12 01N     Longitude: 061 48W

WEATHER
 
SELECT A DAY
Number of Records: 158,881;   Date Range: 6/30/96 - 12/19/14
 
SHARE

PRINT THIS DATA

[ ← Previous Day ]
WEATHER ALMANAC - NOVEMBER 1, 2013
[ Next Day → ]
[ °C ]   °F
Weather ElementAverageHighLow
Temperature81.5 °F86 °F (1:00 pm)77 °F (1:00 am)
Dewpoint76.3 °F80 °F (8:00 pm)73 °F (11:00 pm)
Humidity83.2 %94 % (1:00 am)71 % (2:00 pm)
Barometer29.84 in29.92 in (10:00 pm)29.80 in (1:00 am)
Wind Speed12.9 mph17.3 mph (4:00 pm)
Wind Gust29.9 mph (10:00 pm)
Weather ElementAverage
Visibility7.2 mi
Wind DirectionSE (131.9 °)

Weather ElementTotal
Precipitation---
Cooling Degree Days16.5 (Base 65)
Growing Degree Days31.5 (Base 50)
Averaged from 31 records on November 1, 2013
WEATHER CONDITIONS BREAKOUT
WIND DIRECTION BREAKOUT
WEATHER BY HOUR - NOVEMBER 1, 2013
[ °C ]   °F
Local TimeTemperatureDewpointHumidityBarometerVisibilityWind DirectionWind SpeedGust SpeedPrecipitationEventsConditions
1:00 AM77.0 °F75.2 °F94 %29.80 in6.2 miENE (70°)5.8 mphScattered Clouds
2:00 AM77.0 °F75.0 °F91 %29.81 in7.0 miEast (90°)6.9 mphMostly Cloudy
2:00 AM77.0 °F75.2 °F94 %29.80 in6.2 miEast (90°)6.9 mphScattered Clouds
3:00 AM78.8 °F75.2 °F89 %29.80 in6.2 miESE (120°)13.8 mphScattered Clouds
4:00 AM80.6 °F77.0 °F89 %29.80 in6.2 miESE (120°)11.5 mphScattered Clouds
5:00 AM80.0 °F75.0 °F80 %29.81 in7.0 miESE (120°)13.8 mphWidespread Dust
5:00 AM80.6 °F75.2 °F84 %29.80 in6.2 miESE (120°)13.8 mphScattered Clouds
6:00 AM80.6 °F75.2 °F84 %29.83 in6.2 miSE (130°)12.7 mphPartly Cloudy
7:00 AM82.4 °F75.2 °F79 %29.83 in6.2 miSSE (150°)13.8 mphMostly Cloudy
8:00 AM83.0 °F77.0 °F79 %29.88 in7.0 miSouth (170°)15.0 mphPartly Cloudy
8:00 AM82.4 °F77.0 °F84 %29.86 in6.2 miSouth (170°)15.0 mphMostly Cloudy
9:00 AM82.4 °F77.0 °F84 %29.89 in6.2 miSouth (170°)16.1 mphMostly Cloudy
10:00 AM82.4 °F77.0 °F84 %29.89 in6.2 miSouth (170°)15.0 mphMostly Cloudy
11:00 AM83.0 °F77.0 °F78 %29.88 in12.0 miSouth (170°)11.5 mphWidespread Dust
11:00 AM84.2 °F77.0 °F79 %29.86 in6.2 miSouth (170°)11.5 mphMostly Cloudy
12:00 PM84.2 °F77.0 °F79 %29.83 in6.2 miSouth (170°)9.2 mphMostly Cloudy
1:00 PM86.0 °F78.8 °F79 %29.80 in6.2 miSouth (170°)11.5 mphMostly Cloudy
2:00 PM85.0 °F77.0 °F71 %29.81 in16.0 miSSE (160°)16.1 mphScattered Clouds
2:00 PM86.0 °F77.0 °F74 %29.80 in6.2 miSSE (160°)16.1 mphMostly Cloudy
3:00 PM84.2 °F77.0 °F79 %29.80 in6.2 miSE (130°)13.8 mphMostly Cloudy
4:00 PM84.2 °F77.0 °F79 %29.80 in6.2 miSE (130°)17.3 mphMostly Cloudy
5:00 PM83.0 °F78.0 °F82 %29.82 in14.0 miESE (110°)13.8 mphWidespread Dust
5:00 PM82.4 °F78.8 °F89 %29.80 in6.2 miESE (110°)13.8 mphMostly Cloudy
6:00 PM80.6 °F77.0 °F89 %29.83 in6.2 miESE (120°)11.5 mphMostly Cloudy
7:00 PM78.8 °F75.2 °F89 %29.83 in6.2 miESE (120°)13.8 mphRainLight Rain Showers
8:00 PM80.0 °F9.0 miESE (120°)9.2 mph
8:00 PM80.6 °F75.2 °F84 %29.86 in6.2 miESE (120°)9.2 mphMostly Cloudy
9:00 PM80.6 °F75.2 °F84 %29.89 in6.2 miESE (120°)11.5 mphMostly Cloudy
10:00 PM80.6 °F75.2 °F84 %29.92 in6.2 miESE (120°)17.3 mph29.9 mphMostly Cloudy
11:00 PM78.0 °F73.0 °F80 %29.92 in10.0 miEast (100°)16.1 mphRainLight Rain Showers
11:00 PM78.8 °F73.4 °F83 %29.92 in6.2 miEast (100°)16.1 mphMostly Cloudy
Hourly data recorded from TGPY, located miles away from Saint George's, Grenada







STORIES FROM OUR PARTNERS